Bennington, VT

11:00 PM EDT on October 17, 2017 (GMT -0400)
Morse State

Weather History for KDDH - August, 2014

Change the Weather History Date:

Sunday, August 24, 2014

  Actual Average Record
Temperature  
Mean Temperature 66 °F 66 °F  
Max Temperature 80 °F 77 °F 87 °F (2007)
Min Temperature 51 °F 54 °F 41 °F (2013)
Degree Days  
Heating Degree Days 0 2  
Month to date heating degree days 37 28  
Since 1 June heating degree days 95 149  
Since 1 July heating degree days 48 52  
Cooling Degree Days 1 2  
Month to date cooling degree days 34 81  
Year to date cooling degree days 236 276  
Since 1 June cooling degree days 220 262  
Growing Degree Days 16 (Base 50)    
Moisture  
Dew Point 56 °F    
Average Humidity 71    
Maximum Humidity 96    
Minimum Humidity 45    
Precipitation  
Precipitation 0.00 in 0.12 in 0.82 in (2002)
Month to date precipitation 1.84 3.19  
Year to date precipitation 25.95 26.73  
Sea Level Pressure  
Sea Level Pressure 30.16 in    
Wind  
Wind Speed 1 mph (SSW)    
Max Wind Speed 7 mph    
Max Gust Speed 10 mph    
Visibility 9 miles    
Events      
T = Trace of Precipitation, MM = Missing Value Source: NWS Daily Summary

Daily Weather History Graph

Daily Weather History Graph

Search for Another Location

Airport or City:

Trip Planner

Search our weather history database for the weather conditions in past years. The results will help you decide how hot, cold, wet, or windy it might be!

Date:

Astronomy

Aug. 24, 2014 Rise Set
Actual Time 6:08 AM EDT 7:41 PM EDT
Civil Twilight 5:39 AM EDT 8:10 PM EDT
Nautical Twilight 5:03 AM EDT 8:46 PM EDT
Astronomical Twilight 4:24 AM EDT 9:24 PM EDT
Moon 5:16 AM EDT (8/24) 6:57 PM EDT (8/24)
Length of Visible Light 14h 31m
Length of Day
13h 32m
Waning Crescent, 1% of the Moon is Illuminated
Aug 24
Waning Crescent
Aug 25
New
Sep 2
First Quarter
Sep 8
Full
Sep 15
Last Quarter

Hourly Weather History & Observations

Time (EDT) Temp. Heat Index Dew Point Humidity Pressure Visibility Wind Dir Wind Speed Gust Speed Precip Events Conditions
12:54 AM 54.0 °F - 52.0 °F 93% 30.16 in 10.0 mi Calm Calm - N/A   Clear
1:54 AM 55.0 °F - 53.1 °F 93% 30.15 in 10.0 mi Calm Calm - N/A   Clear
2:41 AM 52.0 °F - 50.0 °F 93% 30.16 in 1.5 mi Calm Calm - N/A   Clear
2:52 AM 51.8 °F - 50.0 °F 94% 30.16 in 3.0 mi Calm Calm - N/A   Clear
2:54 AM 52.0 °F - 50.0 °F 93% 30.16 in 3.0 mi Calm Calm - N/A   Clear
3:54 AM 53.1 °F - 51.1 °F 93% 30.16 in 10.0 mi Calm Calm - N/A   Scattered Clouds
4:54 AM 53.1 °F - 51.1 °F 93% 30.16 in 10.0 mi Calm Calm - N/A   Overcast
5:54 AM 53.1 °F - 51.1 °F 93% 30.17 in 8.0 mi Calm Calm - N/A   Overcast
6:54 AM 54.0 °F - 52.0 °F 93% 30.18 in 10.0 mi SSE 3.5 mph - N/A   Scattered Clouds
7:54 AM 57.0 °F - 55.0 °F 93% 30.18 in 10.0 mi Calm Calm - N/A   Mostly Cloudy
8:54 AM 63.0 °F - 57.0 °F 81% 30.19 in 10.0 mi Calm Calm - N/A   Clear
9:54 AM 66.9 °F - 59.0 °F 76% 30.19 in 10.0 mi Calm Calm - N/A   Clear
10:54 AM 70.0 °F - 60.1 °F 71% 30.18 in 10.0 mi North 3.5 mph - N/A   Partly Cloudy
11:54 AM 72.0 °F - 61.0 °F 68% 30.17 in 10.0 mi Calm Calm - N/A   Mostly Cloudy
12:54 PM 75.9 °F - 63.0 °F 64% 30.16 in 10.0 mi NW 6.9 mph - N/A   Mostly Cloudy
1:54 PM 75.0 °F - 62.1 °F 64% 30.15 in 10.0 mi NW 4.6 mph - N/A   Mostly Cloudy
2:54 PM 79.0 °F - 59.0 °F 50% 30.14 in 10.0 mi Variable 5.8 mph - N/A   Mostly Cloudy
3:54 PM 78.1 °F - 62.1 °F 58% 30.12 in 10.0 mi ESE 3.5 mph - N/A   Scattered Clouds
4:54 PM 80.1 °F 80.4 °F 57.0 °F 45% 30.12 in 10.0 mi Calm Calm - N/A   Scattered Clouds
5:54 PM 73.0 °F - 64.0 °F 73% 30.12 in 10.0 mi Calm Calm - N/A   Mostly Cloudy
6:54 PM 70.0 °F - 63.0 °F 78% 30.14 in 10.0 mi SSW 3.5 mph - N/A   Clear
7:54 PM 64.9 °F - 60.1 °F 84% 30.14 in 9.0 mi South 3.5 mph - N/A   Clear
8:54 PM 61.0 °F - 57.9 °F 90% 30.17 in 10.0 mi Calm Calm - N/A   Clear
9:54 PM 57.9 °F - 55.9 °F 93% 30.17 in 10.0 mi Calm Calm - N/A   Clear
10:54 PM 57.9 °F - 55.9 °F 93% 30.17 in 10.0 mi Calm Calm - N/A   Clear
11:54 PM 55.9 °F - 53.1 °F 90% 30.17 in 10.0 mi Calm Calm - N/A   Clear